Location: Newark
(45.9456°N, 15.4064°E)
Time: 03:18:25
(UTC+00:00)

SR - Pass Details

Date: 03 February 2020
Orbit: 575 x 881 km, 66.7° (Epoch: 16 February)

Event Time Altitude Azimuth Distance (km) Brightness Sun altitude
Rises 18:16:22 0° 189° (S) 3,409 ? -22.9°
Reaches altitude 10° 18:18:55 10° 183° (S) 2,501 ? -23.3°
Enters shadow 18:22:57 36° 148° (SSE) 1,348 ? -24.0°
Maximum altitude 18:24:23 43° 114° (ESE) 1,222 - -24.3°
Drops below altitude 10° 18:29:56 10° 45° (NE) 2,536 - -25.2°
Sets 18:32:31 0° 39° (NE) 3,462 - -25.7°
